TimePST,TemperatureF,Dew PointF,Humidity,Sea Level PressureIn,VisibilityMPH,Wind Direction,Wind SpeedMPH,Gust SpeedMPH,PrecipitationIn,Events,Conditions,WindDirDegrees,DateUTC
12:26 AM,41.0,41.0,100,29.96,10.0,SE,3.5,-,N/A,,Overcast,140,2013-01-07 08:26:00
12:36 AM,41.0,41.0,100,29.95,10.0,ESE,2.3,-,N/A,,Overcast,120,2013-01-07 08:36:00
12:51 AM,41.0,41.0,100,29.95,10.0,ESE,1.2,-,N/A,,Overcast,120,2013-01-07 08:51:00
12:58 AM,41.2,40.5,97,29.97,10.0,SE,1.2,-,0.01,,Overcast,140,2013-01-07 08:58:00
1:30 AM,41.0,41.0,100,29.95,10.0,NE,2.3,-,N/A,,Overcast,50,2013-01-07 09:30:00
1:46 AM,41.0,41.0,100,29.95,10.0,East,1.2,-,N/A,,Overcast,100,2013-01-07 09:46:00
1:58 AM,41.9,40.8,96,29.96,10.0,East,3.5,-,0.00,,Overcast,100,2013-01-07 09:58:00
2:58 AM,45.1,41.0,85,29.93,10.0,SSE,12.7,-,N/A,,Overcast,160,2013-01-07 10:58:00
3:56 AM,46.4,42.8,87,29.90,10.0,SSE,13.8,21.9,N/A,,Light Drizzle,160,2013-01-07 11:56:00
3:58 AM,46.6,42.4,85,29.92,10.0,South,15.0,21.9,0.01,,Light Drizzle,170,2013-01-07 11:58:00
4:00 AM,46.4,42.8,87,29.90,10.0,South,11.5,21.9,N/A,,Overcast,170,2013-01-07 12:00:00
4:58 AM,45.5,43.2,92,29.88,10.0,SSE,15.0,23.0,0.01,,Overcast,160,2013-01-07 12:58:00
5:58 AM,46.2,42.8,88,29.87,10.0,South,10.4,-,N/A,,Overcast,180,2013-01-07 13:58:00
6:32 AM,46.4,42.8,87,29.87,10.0,South,13.8,-,N/A,Rain,Light Rain,170,2013-01-07 14:32:00
6:42 AM,46.4,42.8,87,29.86,10.0,South,13.8,25.3,N/A,,Overcast,170,2013-01-07 14:42:00
6:58 AM,45.9,43.2,90,29.86,10.0,South,16.1,27.6,0.01,,Overcast,170,2013-01-07 14:58:00
7:48 AM,46.4,44.6,93,29.85,10.0,South,11.5,-,N/A,,Overcast,180,2013-01-07 15:48:00
7:58 AM,46.6,44.1,91,29.86,10.0,South,10.4,-,N/A,,Overcast,180,2013-01-07 15:58:00
8:58 AM,47.1,45.1,93,29.90,10.0,South,15.0,-,N/A,,Overcast,170,2013-01-07 16:58:00
9:03 AM,46.4,44.6,93,29.88,8.0,SSE,12.7,23.0,N/A,,Overcast,160,2013-01-07 17:03:00
9:08 AM,46.4,44.6,93,29.89,7.0,South,13.8,23.0,N/A,,Overcast,180,2013-01-07 17:08:00
9:13 AM,46.4,46.4,100,29.88,7.0,SSE,15.0,-,N/A,,Overcast,160,2013-01-07 17:13:00
9:18 AM,46.4,46.4,100,29.89,8.0,South,13.8,-,N/A,,Overcast,170,2013-01-07 17:18:00
9:23 AM,48.2,46.4,93,29.90,10.0,South,13.8,-,N/A,,Overcast,170,2013-01-07 17:23:00
9:28 AM,48.2,46.4,93,29.91,8.0,South,15.0,21.9,N/A,,Overcast,170,2013-01-07 17:28:00
9:30 AM,48.2,46.4,93,29.91,6.0,South,15.0,21.9,N/A,Rain,Light Rain,170,2013-01-07 17:30:00
9:37 AM,48.2,46.4,93,29.91,3.0,South,12.7,19.6,N/A,Rain,Light Rain,170,2013-01-07 17:37:00
9:46 AM,48.2,46.4,93,29.91,4.0,South,13.8,19.6,N/A,,Overcast,170,2013-01-07 17:46:00
9:58 AM,47.3,46.6,97,29.93,5.0,South,16.1,-,0.01,,Overcast,170,2013-01-07 17:58:00
10:58 AM,47.8,47.7,99,29.96,5.0,South,11.5,-,0.01,,Overcast,180,2013-01-07 18:58:00
11:14 AM,48.2,48.2,100,29.94,5.0,South,16.1,20.7,N/A,Rain,Light Rain,170,2013-01-07 19:14:00
11:39 AM,48.2,48.2,100,29.96,2.5,South,12.7,-,N/A,Rain,Light Rain,180,2013-01-07 19:39:00
11:44 AM,48.2,48.2,100,29.95,3.0,South,13.8,-,N/A,,Overcast,190,2013-01-07 19:44:00
11:54 AM,48.2,48.2,100,29.95,7.0,South,16.1,-,N/A,,Overcast,190,2013-01-07 19:54:00
11:58 AM,48.9,48.6,99,29.97,7.0,South,17.3,-,0.01,,Overcast,190,2013-01-07 19:58:00
12:08 PM,50.0,48.2,94,29.97,9.0,SSW,16.1,24.2,N/A,,Overcast,200,2013-01-07 20:08:00
12:58 PM,49.6,48.6,96,29.99,10.0,South,19.6,26.5,0.01,,Overcast,180,2013-01-07 20:58:00
1:03 PM,50.0,48.2,94,29.97,6.0,South,18.4,27.6,N/A,,Overcast,190,2013-01-07 21:03:00
1:48 PM,50.0,48.2,94,30.00,10.0,SSW,13.8,24.2,N/A,,Overcast,210,2013-01-07 21:48:00
1:58 PM,49.6,47.5,92,30.04,10.0,SSW,19.6,25.3,N/A,,Overcast,200,2013-01-07 21:58:00
2:08 PM,50.0,46.4,87,30.01,10.0,SSW,15.0,24.2,N/A,,Overcast,200,2013-01-07 22:08:00
2:18 PM,50.0,46.4,87,30.02,10.0,SSW,16.1,23.0,N/A,,Overcast,210,2013-01-07 22:18:00
2:23 PM,50.0,46.4,87,30.02,10.0,SSW,17.3,23.0,N/A,,Mostly Cloudy,210,2013-01-07 22:23:00
2:53 PM,50.0,46.4,87,30.01,10.0,South,13.8,20.7,N/A,,Mostly Cloudy,180,2013-01-07 22:53:00
2:58 PM,49.5,47.1,92,30.03,9.0,South,12.7,19.6,N/A,,Mostly Cloudy,180,2013-01-07 22:58:00
3:03 PM,48.2,46.4,93,30.02,8.0,SSW,15.0,23.0,N/A,,Overcast,200,2013-01-07 23:03:00
3:08 PM,48.2,46.4,93,30.04,10.0,SSW,13.8,23.0,N/A,,Overcast,200,2013-01-07 23:08:00
3:23 PM,48.2,46.4,93,30.05,10.0,South,15.0,-,N/A,,Overcast,180,2013-01-07 23:23:00
3:33 PM,48.2,46.4,93,30.04,10.0,South,12.7,-,N/A,,Overcast,180,2013-01-07 23:33:00
3:38 PM,48.2,46.4,93,30.05,10.0,South,10.4,20.7,N/A,,Overcast,180,2013-01-07 23:38:00
3:48 PM,48.2,46.4,93,30.06,9.0,South,9.2,-,N/A,,Overcast,190,2013-01-07 23:48:00
3:58 PM,47.7,46.0,94,30.08,10.0,South,12.7,-,N/A,,Overcast,190,2013-01-07 23:58:00
4:13 PM,48.2,46.4,93,30.06,10.0,South,11.5,18.4,N/A,,Overcast,180,2013-01-08 00:13:00
4:18 PM,48.2,46.4,93,30.06,10.0,South,11.5,-,N/A,,Overcast,180,2013-01-08 00:18:00
4:23 PM,48.2,46.4,93,30.06,10.0,South,11.5,-,N/A,,Overcast,180,2013-01-08 00:23:00
4:43 PM,46.4,46.4,100,30.06,10.0,South,12.7,-,N/A,,Overcast,170,2013-01-08 00:43:00
4:58 PM,47.1,45.5,94,30.09,10.0,South,13.8,-,N/A,,Overcast,190,2013-01-08 00:58:00
5:33 PM,46.4,44.6,93,30.08,10.0,South,13.8,25.3,N/A,,Overcast,190,2013-01-08 01:33:00
5:53 PM,46.4,44.6,93,30.09,10.0,SSW,10.4,-,N/A,,Overcast,200,2013-01-08 01:53:00
5:58 PM,46.8,44.2,91,30.12,10.0,South,9.2,-,N/A,,Overcast,190,2013-01-08 01:58:00
6:08 PM,46.4,44.6,93,30.10,10.0,South,10.4,-,N/A,,Overcast,190,2013-01-08 02:08:00
6:43 PM,46.4,42.8,87,30.10,10.0,South,11.5,19.6,N/A,,Overcast,190,2013-01-08 02:43:00
6:58 PM,46.4,43.2,88,30.12,10.0,South,11.5,18.4,N/A,,Overcast,190,2013-01-08 02:58:00
7:58 PM,46.0,42.4,87,30.12,10.0,South,11.5,-,N/A,,Overcast,170,2013-01-08 03:58:00
8:58 PM,45.7,41.7,86,30.16,10.0,South,10.4,16.1,N/A,,Overcast,180,2013-01-08 04:58:00
9:58 PM,45.5,41.5,86,30.17,10.0,SSE,10.4,-,N/A,,Overcast,160,2013-01-08 05:58:00
10:28 PM,44.6,41.0,87,30.15,10.0,SE,8.1,-,N/A,,Overcast,140,2013-01-08 06:28:00
10:58 PM,44.4,41.7,90,30.18,10.0,SSE,6.9,-,N/A,,Overcast,150,2013-01-08 06:58:00
11:58 PM,44.1,41.5,91,30.19,10.0,SSE,3.5,-,N/A,,Overcast,150,2013-01-08 07:58:00